Location: Il Ritiro
(43.4167°N, 13.1333°E)
Time: 00:01:03
(UTC+00:00)

Delta 2 Rocket - Pass Details

Date: 05 July 2020
Orbit: 416 x 807 km, 35.6° (Epoch: 11 August)

Event Time Altitude Azimuth Distance (km) Brightness Sun altitude
Rises 20:22:55 0° 252° (WSW) 2,387 6.9 -13.3°
Reaches altitude 10° 20:25:23 10° 236° (SW) 1,494 5.6 -13.6°
Maximum altitude 20:28:00 21° 184° (S) 986 4.2 -13.9°
Enters shadow 20:28:07 21° 181° (S) 987 4.2 -13.9°
